Hourly Weather Tashkent

Today, 14 August, Friday

Time Temperature Precipitation Wind Pressure Humidity
00:00 +26°C° 0 mm 2 mps 716 mmHg 23%
01:00 +25°C° 0 mm 2 mps 716 mmHg 24%
02:00 +25°C° 0 mm 2 mps 716 mmHg 25%
03:00 +24°C° 0 mm 2 mps 716 mmHg 26%
04:00 +24°C° 0 mm 1 mps 716 mmHg 27%
05:00 +24°C° 0 mm 1 mps 716 mmHg 28%
06:00 +25°C° 0 mm 1 mps 716 mmHg 25%
07:00 +27°C° 0 mm 1 mps 717 mmHg 23%
08:00 +29°C° 0 mm 1 mps 717 mmHg 20%
09:00 +31°C° 0 mm 2 mps 717 mmHg 18%
10:00 +34°C° 0 mm 2 mps 717 mmHg 15%
11:00 +35°C° 0 mm 2 mps 717 mmHg 13%
12:00 +36°C° 0 mm 2 mps 716 mmHg 12%
13:00 +37°C° 0 mm 2 mps 716 mmHg 11%
14:00 +38°C° 0 mm 3 mps 716 mmHg 9%
15:00 +38°C° 0 mm 3 mps 716 mmHg 9%
16:00 +38°C° 0 mm 3 mps 716 mmHg 9%
17:00 +38°C° 0 mm 4 mps 716 mmHg 8%
18:00 +36°C° 0 mm 4 mps 715 mmHg 10%
19:00 +33°C° 0 mm 4 mps 715 mmHg 12%
20:00 +30°C° 0 mm 4 mps 715 mmHg 13%
21:00 +29°C° 0 mm 4 mps 715 mmHg 14%
22:00 +28°C° 0 mm 3 mps 715 mmHg 15%
23:00 +27°C° 0 mm 3 mps 715 mmHg 16%

Tomorrow, 15 August, Saturday

Time Temperature Precipitation Wind Pressure Humidity
00:00 +26°C° 0 mm 2 mps 715 mmHg 16%
01:00 +25°C° 0 mm 2 mps 715 mmHg 17%
02:00 +24°C° 0 mm 1 mps 714 mmHg 18%
03:00 +24°C° 0 mm 1 mps 715 mmHg 19%
04:00 +23°C° 0 mm 1 mps 715 mmHg 19%
05:00 +23°C° 0 mm 1 mps 715 mmHg 20%
06:00 +25°C° 0 mm 1 mps 715 mmHg 18%
07:00 +26°C° 0 mm 1 mps 715 mmHg 17%
08:00 +28°C° 0 mm 1 mps 715 mmHg 15%
09:00 +30°C° 0 mm 2 mps 715 mmHg 13%
10:00 +34°C° 0 mm 2 mps 716 mmHg 11%
11:00 +36°C° 0 mm 2 mps 716 mmHg 9%
12:00 +37°C° 0 mm 2 mps 715 mmHg 8%
13:00 +38°C° 0 mm 2 mps 715 mmHg 7%
14:00 +40°C° 0 mm 2 mps 715 mmHg 7%
15:00 +40°C° 0 mm 2 mps 715 mmHg 6%
16:00 +40°C° 0 mm 2 mps 715 mmHg 6%
17:00 +40°C° 0 mm 2 mps 715 mmHg 6%
18:00 +37°C° 0 mm 2 mps 715 mmHg 7%
19:00 +35°C° 0 mm 2 mps 715 mmHg 9%
20:00 +31°C° 0 mm 2 mps 714 mmHg 10%
21:00 +30°C° 0 mm 2 mps 714 mmHg 11%
22:00 +29°C° 0 mm 2 mps 714 mmHg 12%
23:00 +28°C° 0 mm 2 mps 714 mmHg 13%

Day after tomorrow, 16 August, Sunday

Time Temperature Precipitation Wind Pressure Humidity
00:00 +27°C° 0 mm 2 mps 714 mmHg 13%
01:00 +27°C° 0 mm 1 mps 714 mmHg 14%
02:00 +26°C° 0 mm 1 mps 714 mmHg 15%
03:00 +26°C° 0 mm 1 mps 714 mmHg 15%
04:00 +25°C° 0 mm 1 mps 714 mmHg 15%
05:00 +25°C° 0 mm 1 mps 715 mmHg 16%
06:00 +27°C° 0 mm 1 mps 715 mmHg 14%
07:00 +28°C° 0 mm 1 mps 715 mmHg 13%
08:00 +30°C° 0 mm 2 mps 716 mmHg 12%
09:00 +32°C° 0 mm 2 mps 716 mmHg 11%
10:00 +35°C° 0 mm 2 mps 716 mmHg 10%
11:00 +38°C° 0 mm 2 mps 717 mmHg 9%
12:00 +39°C° 0 mm 3 mps 717 mmHg 10%
13:00 +40°C° 0 mm 3 mps 716 mmHg 10%
14:00 +42°C° 0 mm 3 mps 716 mmHg 11%
15:00 +42°C° 0 mm 4 mps 716 mmHg 11%
16:00 +42°C° 0 mm 4 mps 716 mmHg 12%
17:00 +41°C° 0 mm 5 mps 716 mmHg 13%
18:00 +39°C° 0 mm 5 mps 716 mmHg 15%
19:00 +36°C° 0 mm 5 mps 716 mmHg 17%
20:00 +34°C° 0 mm 4 mps 716 mmHg 19%
21:00 +33°C° 0 mm 4 mps 715 mmHg 20%
22:00 +32°C° 0 mm 4 mps 715 mmHg 21%
23:00 +30°C° 0 mm 4 mps 715 mmHg 22%

17 August, Monday

Time Temperature Precipitation Wind Pressure Humidity
00:00 +30°C° 0 mm 3 mps 715 mmHg 23%
01:00 +29°C° 0 mm 3 mps 714 mmHg 23%
02:00 +29°C° 0 mm 3 mps 714 mmHg 24%
03:00 +28°C° 0 mm 2 mps 714 mmHg 25%
04:00 +28°C° 0 mm 2 mps 714 mmHg 26%
05:00 +27°C° 0 mm 1 mps 714 mmHg 27%
06:00 +28°C° 0 mm 1 mps 715 mmHg 25%
07:00 +30°C° 0 mm 2 mps 715 mmHg 23%
08:00 +31°C° 0 mm 2 mps 715 mmHg 21%
09:00 +34°C° 0 mm 2 mps 715 mmHg 19%
10:00 +36°C° 0 mm 2 mps 715 mmHg 17%
11:00 +38°C° 0 mm 2 mps 715 mmHg 15%
12:00 +39°C° 0 mm 3 mps 715 mmHg 15%
13:00 +40°C° 0 mm 4 mps 715 mmHg 14%
14:00 +41°C° 0 mm 5 mps 714 mmHg 14%
15:00 +40°C° 0 mm 5 mps 714 mmHg 16%
16:00 +39°C° 0 mm 5 mps 714 mmHg 17%
17:00 +38°C° 0 mm 6 mps 714 mmHg 19%
18:00 +35°C° 0 mm 5 mps 714 mmHg 21%
19:00 +34°C° 0 mm 4 mps 715 mmHg 24%
20:00 +33°C° 0 mm 3 mps 715 mmHg 26%
21:00 +30°C° 0 mm 4 mps 715 mmHg 24%
22:00 +29°C° 0 mm 5 mps 715 mmHg 22%
23:00 +28°C° 0 mm 7 mps 715 mmHg 21%

18 August, Tuesday

Time Temperature Precipitation Wind Pressure Humidity
00:00 +27°C° 0 mm 6 mps 716 mmHg 23%
01:00 +25°C° 0 mm 5 mps 716 mmHg 24%
02:00 +23°C° 0 mm 4 mps 716 mmHg 26%
03:00 +23°C° 0 mm 4 mps 716 mmHg 27%
04:00 +24°C° 0 mm 3 mps 717 mmHg 28%
05:00 +22°C° 0 mm 3 mps 717 mmHg 29%
06:00 +24°C° 0 mm 3 mps 718 mmHg 27%
07:00 +25°C° 0 mm 3 mps 718 mmHg 26%
08:00 +26°C° 0 mm 3 mps 719 mmHg 24%
09:00 +27°C° 0 mm 3 mps 719 mmHg 22%
10:00 +29°C° 0 mm 3 mps 719 mmHg 21%
11:00 +30°C° 0 mm 4 mps 719 mmHg 20%
12:00 +32°C° 0 mm 4 mps 719 mmHg 19%
13:00 +33°C° 0 mm 4 mps 719 mmHg 19%
14:00 +33°C° 0 mm 4 mps 718 mmHg 18%
15:00 +33°C° 0 mm 4 mps 718 mmHg 18%
16:00 +33°C° 0 mm 4 mps 718 mmHg 17%
17:00 +33°C° 0 mm 5 mps 718 mmHg 16%
18:00 +30°C° 0 mm 4 mps 718 mmHg 18%
19:00 +28°C° 0 mm 4 mps 718 mmHg 19%
20:00 +25°C° 0 mm 4 mps 718 mmHg 21%
21:00 +25°C° 0 mm 4 mps 718 mmHg 22%
22:00 +23°C° 0 mm 4 mps 717 mmHg 23%
23:00 +22°C° 0 mm 4 mps 717 mmHg 24%

19 August, Wednesday

Time Temperature Precipitation Wind Pressure Humidity
00:00 +21°C° 0 mm 3 mps 717 mmHg 25%
01:00 +21°C° 0 mm 3 mps 716 mmHg 25%
02:00 +21°C° 0 mm 3 mps 716 mmHg 26%
03:00 +20°C° 0 mm 2 mps 716 mmHg 27%
04:00 +20°C° 0 mm 2 mps 716 mmHg 28%
05:00 +20°C° 0 mm 2 mps 715 mmHg 29%
06:00 +21°C° 0 mm 2 mps 716 mmHg 27%
07:00 +24°C° 0 mm 2 mps 716 mmHg 24%
08:00 +26°C° 0 mm 2 mps 716 mmHg 22%
09:00 +28°C° 0 mm 2 mps 716 mmHg 19%
10:00 +29°C° 0 mm 2 mps 716 mmHg 16%
11:00 +31°C° 0 mm 3 mps 716 mmHg 13%
12:00 +33°C° 0 mm 3 mps 716 mmHg 13%
13:00 +34°C° 0 mm 4 mps 716 mmHg 13%
14:00 +35°C° 0 mm 4 mps 715 mmHg 13%
15:00 +35°C° 0 mm 5 mps 715 mmHg 13%
16:00 +35°C° 0 mm 5 mps 715 mmHg 13%
17:00 +34°C° 0 mm 5 mps 715 mmHg 13%
18:00 +32°C° 0 mm 5 mps 715 mmHg 15%
19:00 +29°C° 0 mm 4 mps 715 mmHg 16%
20:00 +27°C° 0 mm 4 mps 715 mmHg 17%
21:00 +26°C° 0 mm 3 mps 715 mmHg 19%
22:00 +25°C° 0 mm 3 mps 715 mmHg 20%
23:00 +24°C° 0 mm 3 mps 715 mmHg 21%
Show more